SCP
0 0 0 0 0 0 0 0 0 0 0 0 0 0 0 0 0 0 0 0 0 0 0 0 0 0 0 0 0 0 0 0 0 0 0 0 0 0 0 0 0 0 0 0
0 0 0 0 0 0 0 0 0 0 0 0 0 -0 0 0 -0 0 0 0 0 0 0 0 0 0 0 0 0 0 0 0 0 0 0 0 0 0 0 0 0 0 0 0
0 0 0 0 0 0 0 0 0 0 0 0 0 0 0 0 0 0 0 0 0 0 0 0 0 0 0 0 0 0 0 0 0 0 0 0 0 0 0 0 0 0 0 0
0 0 0 0 0 0 0 0 0 0 0 0 0 0 0 0 0 0 0 0 0 0 0 0 0 0 0 0 0 0 0 0 0 0 0 0 0 0 0 0 0 0 0 0
0 0 0 0 0 0 0 0 0 0 0 0 0 0 0 0 0 0 0 0 0 0 0 0 0 0 0 0 0 0 0 0 0 0 0 0 0 0 0 0 0 0 0 0
0 0 0 0 0 0 0 0 0 0 0 0 0 0 -0 0 0 0 0 0 0 0 0 0 0 0 0 0 0 0 0 0 0 0 0 0 0 0 0 0 0 0 0 0
0 0 0 0 0 0 0 0 0 0 0 0 0 0 0 0 0 0 0 0 0 0 0 0 0 0 0 0 0 0 0 0 0 0 0 0 0 0 0 0 0 0 0 0
0 0 0 0 0 0 0 0 0 0 0 0 0 0 0 0 -0 -0 0 0 0 0 0 0 0 0 0 0 0 0 0 0 0 0 0 0 0 0 0 0 0 0 0 0
0 0 0 0 0 0 0 0 0 0 0 0 0 0 0 -0 0 0 0 0 0 0 0 0 0 0 0 0 0 0 0 0 0 0 0 0 0 0 0 0 0 0 0 0
0 0 0 0 0 0 0 0 0 0 0 0 0 0 -0 0 0 0 0 0 0 0 0 0 0 0 0 0 0 0 0 0 0 0 0 0 0 0 0 0 0 0 0 0
0 0 0 0 0 0 0 0 0 0 0 0 0 0 0 0 0 0 0 0 0 0 0 0 0 0 0 0 0 0 0 0 0 0 0 0 0 0 0 0 0 0 0 0
0 0 0 0 0 0 0 0 0 0 0 0 0 0 0 0 0 0 0 0 0 0 0 0 0 0 0 0 0 0 0 0 0 0 0 0 0 0 0 0 0 0 0 0
0 0 0 0 0 0 0 0 0 0 0 0 0 0 0 0 0 0 0 0 0 0 0 0 0 0 0 0 0 0 0 0 0 0 0 0 0 0 0 0 0 0 0 0
0 0 0 0 0 0 0 0 0 0 0 0 0 0 0 0 0 0 0 0 0 0 0 0 0 0 0 0 0 0 0 0 0 0 0 0 0 0 0 0 0 0 0 0
0 0 0 0 0 0 0 0 0 0 0 0 0 0 0 0 0 0 0 0 0 0 0 0 0 0 0 0 0 0 0 0 0 0 0 0 0 0 0 0 0 0 0 0
0 0 0 0 0 0 0 0 0 0 0 0 0 0 0 0 0 0 0 0 0 0 0 0 0 0 0 0 0 0 0 0 0 0 0 0 0 0 0 0 0 0 0 0
0 0 0 0 0 0 0 0 0 0 0 0 0 0 0 0 0 0 0 0 0 0 0 0 0 0 0 0 0 0 0 0 0 0 0 0 0 0 0 0 0 0 0 0
0 0 0 0 0 0 0 0 0 0 0 0 0 0 0 0 0 0 0 0 0 0 0 0 0 0 0 0 0 0 0 0 0 0 0 0 0 0 0 0 0 0 0 0
0 0 0 0 0 0 0 0 0 0 0 0 0 0 0 0 0 0 0 0 0 0 0 0 0 0 0 0 0 0 0 0 0 0 0 0 0 0 0 0 0 0 0 0
0 0 0 0 0 0 0 0 0 0 0 0 0 0 0 0 0 0 0 0 0 0 0 0 0 0 0 0 0 0 0 0 0 0 0 0 0 0 0 0 0 0 0 0
0 0 0 0 0 0 0 0 0 0 0 0 0 0 0 0 0 0 0 0 0 0 0 0 0 0 0 0 0 0 0 0 0 0 0 0 0 0 0 0 0 0 0 0
0 0 0 0 0 0 0 0 0 0 0 0 0 0 0 0 0 0 0 0 0 0 0 0 0 0 0 0 0 0 0 0 0 0 0 0 0 0 0 0 0 0 0 0
0 0 0 0 0 0 -0 0 0 0 0 0 0 0 0 0 0 0 0 0 0 0 0 0 0 0 0 0 0 0 0 0 0 0 0 0 0 0 0 0 0 0 0 0
0 0 0 0 0 0 0 0 0 0 0 0 0 0 0 0 0 0 0 0 0 0 0 0 0 0 0 0 0 0 0 0 0 0 0 0 0 0 0 0 0 0 0 -0
0 0 0 0 0 0 0 0 0 0 0 0 0 0 0 0 0 0 0 0 0 0 0 0 0 0 0 0 0 0 0 0 0 0 0 0 0 0 0 0 0 0 -0 0
0 0 0 0 0 0 0 0 0 0 0 0 0 0 0 0 0 0 0 0 0 0 0 0 0 0 0 0 0 0 0 0 0 0 0 0 0 0 0 0 0 0 0 0
Wind_Speed_500mb
1 6 22 36 27 16 20 13 15 4 10 9 14 19 19 28 23 27 31 29 34 39 39 47 47 43 44 37 27 27 27 23 19 18 20 20 17 20 18 18 22 20 24 21
9 3 6 21 16 17 31 26 8 7 7 4 5 29 14 19 18 40 45 41 39 36 37 39 43 45 48 46 36 29 27 24 21 22 25 20 20 18 16 11 19 24 24 23
9 1 9 11 16 20 10 28 12 11 10 5 5 13 19 12 25 31 42 46 41 44 43 41 42 41 42 43 38 32 29 25 27 29 27 21 21 19 19 18 18 18 18 18
4 4 28 13 13 11 10 13 22 28 18 8 12 12 14 22 20 19 52 53 49 51 49 46 44 45 45 44 40 35 32 30 31 31 27 25 23 21 22 14 12 11 14 17
4 3 21 30 18 23 0 3 24 15 12 4 10 6 6 8 13 24 46 63 58 54 56 53 48 48 45 43 39 36 35 33 29 24 22 21 19 17 12 8 7 11 14 16
7 5 7 6 9 9 24 11 15 8 6 11 14 16 9 12 20 18 40 67 72 58 51 48 46 46 45 42 40 40 36 30 25 19 15 13 12 10 7 5 7 7 9 13
5 7 5 13 14 7 10 13 3 2 7 12 4 14 23 14 16 23 32 53 71 63 59 55 52 49 44 43 40 36 32 27 20 15 13 12 10 8 6 4 2 4 10 16
6 5 13 12 6 6 13 12 9 11 9 5 3 13 11 8 21 40 38 48 67 64 59 57 55 50 46 44 43 38 31 24 20 17 16 14 12 8 6 3 4 11 19 27
8 4 6 11 8 5 5 6 6 9 4 5 8 10 21 2 10 8 16 40 60 69 65 63 59 54 54 51 43 36 29 24 21 19 16 14 9 7 4 5 12 19 27 34
4 10 6 6 7 21 9 7 8 1 9 9 6 8 9 8 9 11 15 32 55 67 68 67 64 61 55 48 41 35 28 23 20 17 13 10 7 5 6 12 19 25 31 39
5 6 4 2 1 8 5 4 5 3 3 6 3 9 10 13 12 15 22 41 59 72 72 70 65 59 52 46 41 37 32 25 19 15 15 12 7 8 12 17 23 30 39 47
2 7 6 3 1 4 4 3 7 5 8 5 3 11 6 15 15 17 29 45 56 68 71 68 63 57 53 50 46 39 34 25 19 20 16 12 12 14 18 23 30 38 44 50
6 1 7 3 4 5 7 9 5 1 5 9 8 8 2 9 6 11 30 43 56 67 66 63 62 62 59 52 45 40 34 28 21 17 16 17 17 19 23 28 35 43 49 53
4 3 7 9 7 10 10 17 23 8 6 8 11 13 15 10 7 8 22 38 53 66 69 70 68 65 58 52 46 41 38 32 23 18 18 19 19 23 27 34 41 47 52 55
6 4 2 5 9 1 5 9 26 24 20 14 16 23 30 7 11 11 24 34 48 66 70 73 73 69 63 54 48 42 38 33 28 24 21 20 25 29 33 39 45 49 52 57
4 3 3 6 7 9 5 12 20 31 16 30 24 31 19 39 14 15 24 38 55 70 82 83 80 75 68 61 52 45 37 35 32 29 25 27 29 33 37 42 48 50 54 62
5 8 5 8 8 6 11 20 27 12 10 17 17 17 3 9 17 38 45 46 59 67 83 93 91 87 76 66 54 45 36 33 32 28 28 30 33 35 39 44 47 52 59 66
8 9 6 4 8 5 13 3 8 21 18 15 22 22 13 16 28 37 39 45 60 67 69 80 93 91 82 70 53 44 38 32 33 30 29 33 33 34 39 43 48 55 62 65
5 8 5 7 6 13 13 7 12 13 8 6 19 22 33 33 30 53 46 56 56 54 56 60 69 85 84 71 59 48 40 35 33 29 31 31 31 36 40 42 50 57 61 63
10 12 7 6 9 11 11 3 6 4 8 10 8 11 11 11 1 8 28 24 39 49 44 44 44 53 75 71 57 48 40 34 31 30 28 28 32 35 37 44 51 55 57 58
6 6 11 5 4 18 16 11 14 12 12 14 6 6 9 4 15 24 35 30 20 30 36 31 29 35 52 64 54 45 38 34 29 26 26 27 29 32 38 45 50 51 54 53
16 15 8 7 5 18 22 12 14 9 11 8 2 9 14 24 16 18 26 23 15 6 19 19 22 31 47 53 48 43 36 31 27 24 23 23 27 32 39 43 46 47 47 46
7 12 11 18 14 7 50 9 31 12 2 9 10 16 20 24 25 12 17 23 13 14 19 21 29 43 49 47 41 38 33 28 23 19 19 21 24 33 39 39 40 39 40 45
8 10 5 4 10 17 32 37 39 31 31 32 35 35 33 31 22 24 14 10 12 8 22 30 40 46 50 48 42 34 27 22 17 15 16 18 25 33 32 33 32 32 38 45
7 15 12 10 19 21 32 34 36 31 29 30 27 23 18 19 19 15 16 12 9 10 21 32 40 44 44 42 37 30 23 18 12 12 15 19 23 24 26 23 24 30 37 41
19 14 11 11 24 10 4 10 13 2 4 9 7 11 9 8 8 5 10 8 15 23 31 39 41 40 39 37 32 25 19 14 13 13 12 17 18 15 16 18 20 24 28 30
Wind_Direction_500mb
258 319 179 170 181 139 143 131 148 134 155 150 218 238 215 207 204 221 226 216 215 218 216 219 222 222 223 226 229 221 230 235 238 248 258 261 267 280 282 290 297 295 312 313
191 70 79 133 115 152 151 174 143 61 107 115 324 262 244 182 214 218 223 220 221 221 219 217 216 222 226 222 220 224 222 223 238 249 260 249 256 263 265 269 277 291 307 317
192 102 154 143 135 153 159 173 167 136 131 42 117 261 246 228 220 224 230 232 222 221 217 216 215 214 211 214 217 226 225 233 241 248 251 238 242 244 258 266 283 301 314 327
173 258 173 169 176 172 163 173 153 134 149 211 189 263 221 206 212 210 222 222 221 217 213 215 211 208 208 209 212 221 232 241 243 247 244 238 236 241 260 267 284 310 328 328
148 202 181 163 177 167 317 156 151 163 149 175 183 264 235 136 226 229 224 220 221 217 211 209 207 204 203 206 214 224 230 233 238 233 232 235 236 244 258 264 298 318 324 339
86 27 19 62 60 136 138 83 49 60 57 247 198 194 232 179 210 231 219 219 215 208 202 202 201 199 200 204 211 217 225 223 215 212 215 224 235 235 238 283 300 324 346 347
35 26 55 34 84 27 113 126 28 136 189 243 350 205 253 247 240 228 215 212 212 203 198 198 197 192 193 199 204 202 193 195 197 202 211 211 213 219 240 244 285 344 341 334
110 147 5 350 24 130 145 161 155 184 195 176 2 236 244 266 280 253 243 217 212 199 198 197 196 194 193 191 184 185 189 196 197 196 201 206 213 206 197 224 328 334 332 334
134 79 314 46 48 347 141 119 85 104 38 69 208 276 287 8 278 297 200 193 194 195 193 195 193 190 183 181 184 189 193 192 192 196 204 196 189 193 217 313 326 326 332 333
110 94 8 11 355 33 60 130 98 24 161 231 245 258 246 325 285 230 192 190 188 192 190 187 184 180 181 183 185 187 190 192 194 197 191 191 203 228 299 314 318 325 325 325
82 81 20 101 161 162 131 150 73 123 173 178 303 260 211 255 261 248 208 193 189 189 187 184 181 182 183 185 190 192 191 191 195 196 199 210 236 279 296 307 313 318 325 326
93 106 103 68 359 352 53 155 160 175 202 240 137 274 220 269 270 245 190 190 193 191 187 185 183 184 187 192 193 195 194 193 195 201 209 232 258 278 296 312 317 320 322 322
196 91 102 36 354 357 225 189 199 133 95 207 160 257 192 329 30 158 174 190 193 188 188 188 189 191 194 195 198 201 200 202 200 208 225 240 261 288 307 313 318 320 321 321
113 151 189 180 162 134 201 203 195 181 163 183 212 282 281 276 328 162 184 193 192 192 192 193 196 198 199 200 202 204 206 208 210 220 232 247 272 288 303 312 315 319 321 322
108 155 345 47 55 7 228 180 191 208 215 196 212 213 246 235 219 208 198 195 198 200 200 203 203 203 203 203 205 208 210 215 221 231 247 266 277 290 300 308 315 320 322 323
33 204 110 354 23 34 300 250 208 218 233 247 260 279 244 264 223 211 208 202 206 209 210 210 210 210 207 208 209 211 212 219 228 238 255 269 279 289 298 310 317 318 322 325
101 129 73 279 358 350 325 226 205 196 222 211 206 243 215 267 234 241 245 232 224 220 219 216 215 215 213 214 212 211 214 222 232 241 258 271 280 289 304 313 317 322 325 328
124 90 54 233 10 359 243 166 196 212 247 228 278 267 260 264 281 279 263 251 242 237 230 226 223 219 217 217 212 210 216 225 229 240 260 272 281 296 307 315 321 324 330 334
33 110 76 130 186 293 284 196 173 169 282 216 234 275 288 294 296 281 276 255 255 251 245 235 232 226 220 216 211 211 217 221 227 244 258 272 288 301 311 321 325 329 334 337
51 49 111 76 140 212 246 193 191 116 308 188 209 277 298 335 233 267 342 314 257 246 243 244 239 231 219 211 208 211 214 221 230 243 262 277 294 306 320 327 330 335 339 342
128 21 158 151 207 284 238 161 139 89 238 173 181 313 317 218 227 298 323 332 323 237 236 229 225 221 208 203 204 205 211 217 229 246 263 285 302 318 327 331 333 339 344 348
163 150 182 87 94 267 157 105 164 213 154 177 253 6 356 352 333 296 331 344 344 201 205 196 186 178 183 193 198 202 207 214 230 248 270 293 314 323 330 334 337 342 347 355
217 184 178 188 207 229 185 182 204 167 205 277 294 328 331 348 1 342 5 19 30 152 164 165 165 167 174 182 191 198 203 216 234 254 284 304 320 330 333 337 342 349 358 11
258 173 172 81 257 232 238 237 248 251 266 282 291 299 304 308 319 345 308 333 13 137 173 173 172 174 174 178 183 196 209 221 240 271 295 315 330 334 338 343 350 2 16 22
182 137 175 268 278 266 257 240 247 251 266 279 286 290 302 296 291 305 331 262 242 204 174 173 174 175 177 180 188 200 212 225 250 281 302 321 337 342 340 353 9 24 30 32
190 177 175 214 223 198 212 120 117 265 267 358 71 66 11 30 32 306 331 263 230 205 189 180 179 184 183 188 197 205 215 233 261 279 305 332 337 350 358 15 37 43 48 47
Wind_Speed_850mb
1 6 22 36 27 16 20 13 15 4 10 9 14 19 19 28 23 27 31 29 34 39 39 47 47 43 44 37 27 27 27 23 19 18 20 20 17 20 18 18 22 20 24 21
9 3 6 21 16 17 31 26 8 7 7 4 5 29 14 19 18 40 45 41 39 36 37 39 43 45 48 46 36 29 27 24 21 22 25 20 20 18 16 11 19 24 24 23
9 1 9 11 16 20 10 28 12 11 10 5 5 13 19 12 25 31 42 46 41 44 43 41 42 41 42 43 38 32 29 25 27 29 27 21 21 19 19 18 18 18 18 18
4 4 28 13 13 11 10 13 22 28 18 8 12 12 14 22 20 19 52 53 49 51 49 46 44 45 45 44 40 35 32 30 31 31 27 25 23 21 22 14 12 11 14 17
4 3 21 30 18 23 0 3 24 15 12 4 10 6 6 8 13 24 46 63 58 54 56 53 48 48 45 43 39 36 35 33 29 24 22 21 19 17 12 8 7 11 14 16
7 5 7 6 9 9 24 11 15 8 6 11 14 16 9 12 20 18 40 67 72 58 51 48 46 46 45 42 40 40 36 30 25 19 15 13 12 10 7 5 7 7 9 13
5 7 5 13 14 7 10 13 3 2 7 12 4 14 23 14 16 23 32 53 71 63 59 55 52 49 44 43 40 36 32 27 20 15 13 12 10 8 6 4 2 4 10 16
6 5 13 12 6 6 13 12 9 11 9 5 3 13 11 8 21 40 38 48 67 64 59 57 55 50 46 44 43 38 31 24 20 17 16 14 12 8 6 3 4 11 19 27
8 4 6 11 8 5 5 6 6 9 4 5 8 10 21 2 10 8 16 40 60 69 65 63 59 54 54 51 43 36 29 24 21 19 16 14 9 7 4 5 12 19 27 34
4 10 6 6 7 21 9 7 8 1 9 9 6 8 9 8 9 11 15 32 55 67 68 67 64 61 55 48 41 35 28 23 20 17 13 10 7 5 6 12 19 25 31 39
5 6 4 2 1 8 5 4 5 3 3 6 3 9 10 13 12 15 22 41 59 72 72 70 65 59 52 46 41 37 32 25 19 15 15 12 7 8 12 17 23 30 39 47
2 7 6 3 1 4 4 3 7 5 8 5 3 11 6 15 15 17 29 45 56 68 71 68 63 57 53 50 46 39 34 25 19 20 16 12 12 14 18 23 30 38 44 50
6 1 7 3 4 5 7 9 5 1 5 9 8 8 2 9 6 11 30 43 56 67 66 63 62 62 59 52 45 40 34 28 21 17 16 17 17 19 23 28 35 43 49 53
4 3 7 9 7 10 10 17 23 8 6 8 11 13 15 10 7 8 22 38 53 66 69 70 68 65 58 52 46 41 38 32 23 18 18 19 19 23 27 34 41 47 52 55
6 4 2 5 9 1 5 9 26 24 20 14 16 23 30 7 11 11 24 34 48 66 70 73 73 69 63 54 48 42 38 33 28 24 21 20 25 29 33 39 45 49 52 57
4 3 3 6 7 9 5 12 20 31 16 30 24 31 19 39 14 15 24 38 55 70 82 83 80 75 68 61 52 45 37 35 32 29 25 27 29 33 37 42 48 50 54 62
5 8 5 8 8 6 11 20 27 12 10 17 17 17 3 9 17 38 45 46 59 67 83 93 91 87 76 66 54 45 36 33 32 28 28 30 33 35 39 44 47 52 59 66
8 9 6 4 8 5 13 3 8 21 18 15 22 22 13 16 28 37 39 45 60 67 69 80 93 91 82 70 53 44 38 32 33 30 29 33 33 34 39 43 48 55 62 65
5 8 5 7 6 13 13 7 12 13 8 6 19 22 33 33 30 53 46 56 56 54 56 60 69 85 84 71 59 48 40 35 33 29 31 31 31 36 40 42 50 57 61 63
10 12 7 6 9 11 11 3 6 4 8 10 8 11 11 11 1 8 28 24 39 49 44 44 44 53 75 71 57 48 40 34 31 30 28 28 32 35 37 44 51 55 57 58
6 6 11 5 4 18 16 11 14 12 12 14 6 6 9 4 15 24 35 30 20 30 36 31 29 35 52 64 54 45 38 34 29 26 26 27 29 32 38 45 50 51 54 53
16 15 8 7 5 18 22 12 14 9 11 8 2 9 14 24 16 18 26 23 15 6 19 19 22 31 47 53 48 43 36 31 27 24 23 23 27 32 39 43 46 47 47 46
7 12 11 18 14 7 50 9 31 12 2 9 10 16 20 24 25 12 17 23 13 14 19 21 29 43 49 47 41 38 33 28 23 19 19 21 24 33 39 39 40 39 40 45
8 10 5 4 10 17 32 37 39 31 31 32 35 35 33 31 22 24 14 10 12 8 22 30 40 46 50 48 42 34 27 22 17 15 16 18 25 33 32 33 32 32 38 45
7 15 12 10 19 21 32 34 36 31 29 30 27 23 18 19 19 15 16 12 9 10 21 32 40 44 44 42 37 30 23 18 12 12 15 19 23 24 26 23 24 30 37 41
19 14 11 11 24 10 4 10 13 2 4 9 7 11 9 8 8 5 10 8 15 23 31 39 41 40 39 37 32 25 19 14 13 13 12 17 18 15 16 18 20 24 28 30
Wind_Direction_850mb
258 319 179 170 181 139 143 131 148 134 155 150 218 238 215 207 204 221 226 216 215 218 216 219 222 222 223 226 229 221 230 235 238 248 258 261 267 280 282 290 297 295 312 313
191 70 79 133 115 152 151 174 143 61 107 115 324 262 244 182 214 218 223 220 221 221 219 217 216 222 226 222 220 224 222 223 238 249 260 249 256 263 265 269 277 291 307 317
192 102 154 143 135 153 159 173 167 136 131 42 117 261 246 228 220 224 230 232 222 221 217 216 215 214 211 214 217 226 225 233 241 248 251 238 242 244 258 266 283 301 314 327
173 258 173 169 176 172 163 173 153 134 149 211 189 263 221 206 212 210 222 222 221 217 213 215 211 208 208 209 212 221 232 241 243 247 244 238 236 241 260 267 284 310 328 328
148 202 181 163 177 167 317 156 151 163 149 175 183 264 235 136 226 229 224 220 221 217 211 209 207 204 203 206 214 224 230 233 238 233 232 235 236 244 258 264 298 318 324 339
86 27 19 62 60 136 138 83 49 60 57 247 198 194 232 179 210 231 219 219 215 208 202 202 201 199 200 204 211 217 225 223 215 212 215 224 235 235 238 283 300 324 346 347
35 26 55 34 84 27 113 126 28 136 189 243 350 205 253 247 240 228 215 212 212 203 198 198 197 192 193 199 204 202 193 195 197 202 211 211 213 219 240 244 285 344 341 334
110 147 5 350 24 130 145 161 155 184 195 176 2 236 244 266 280 253 243 217 212 199 198 197 196 194 193 191 184 185 189 196 197 196 201 206 213 206 197 224 328 334 332 334
134 79 314 46 48 347 141 119 85 104 38 69 208 276 287 8 278 297 200 193 194 195 193 195 193 190 183 181 184 189 193 192 192 196 204 196 189 193 217 313 326 326 332 333
110 94 8 11 355 33 60 130 98 24 161 231 245 258 246 325 285 230 192 190 188 192 190 187 184 180 181 183 185 187 190 192 194 197 191 191 203 228 299 314 318 325 325 325
82 81 20 101 161 162 131 150 73 123 173 178 303 260 211 255 261 248 208 193 189 189 187 184 181 182 183 185 190 192 191 191 195 196 199 210 236 279 296 307 313 318 325 326
93 106 103 68 359 352 53 155 160 175 202 240 137 274 220 269 270 245 190 190 193 191 187 185 183 184 187 192 193 195 194 193 195 201 209 232 258 278 296 312 317 320 322 322
196 91 102 36 354 357 225 189 199 133 95 207 160 257 192 329 30 158 174 190 193 188 188 188 189 191 194 195 198 201 200 202 200 208 225 240 261 288 307 313 318 320 321 321
113 151 189 180 162 134 201 203 195 181 163 183 212 282 281 276 328 162 184 193 192 192 192 193 196 198 199 200 202 204 206 208 210 220 232 247 272 288 303 312 315 319 321 322
108 155 345 47 55 7 228 180 191 208 215 196 212 213 246 235 219 208 198 195 198 200 200 203 203 203 203 203 205 208 210 215 221 231 247 266 277 290 300 308 315 320 322 323
33 204 110 354 23 34 300 250 208 218 233 247 260 279 244 264 223 211 208 202 206 209 210 210 210 210 207 208 209 211 212 219 228 238 255 269 279 289 298 310 317 318 322 325
101 129 73 279 358 350 325 226 205 196 222 211 206 243 215 267 234 241 245 232 224 220 219 216 215 215 213 214 212 211 214 222 232 241 258 271 280 289 304 313 317 322 325 328
124 90 54 233 10 359 243 166 196 212 247 228 278 267 260 264 281 279 263 251 242 237 230 226 223 219 217 217 212 210 216 225 229 240 260 272 281 296 307 315 321 324 330 334
33 110 76 130 186 293 284 196 173 169 282 216 234 275 288 294 296 281 276 255 255 251 245 235 232 226 220 216 211 211 217 221 227 244 258 272 288 301 311 321 325 329 334 337
51 49 111 76 140 212 246 193 191 116 308 188 209 277 298 335 233 267 342 314 257 246 243 244 239 231 219 211 208 211 214 221 230 243 262 277 294 306 320 327 330 335 339 342
128 21 158 151 207 284 238 161 139 89 238 173 181 313 317 218 227 298 323 332 323 237 236 229 225 221 208 203 204 205 211 217 229 246 263 285 302 318 327 331 333 339 344 348
163 150 182 87 94 267 157 105 164 213 154 177 253 6 356 352 333 296 331 344 344 201 205 196 186 178 183 193 198 202 207 214 230 248 270 293 314 323 330 334 337 342 347 355
217 184 178 188 207 229 185 182 204 167 205 277 294 328 331 348 1 342 5 19 30 152 164 165 165 167 174 182 191 198 203 216 234 254 284 304 320 330 333 337 342 349 358 11
258 173 172 81 257 232 238 237 248 251 266 282 291 299 304 308 319 345 308 333 13 137 173 173 172 174 174 178 183 196 209 221 240 271 295 315 330 334 338 343 350 2 16 22
182 137 175 268 278 266 257 240 247 251 266 279 286 290 302 296 291 305 331 262 242 204 174 173 174 175 177 180 188 200 212 225 250 281 302 321 337 342 340 353 9 24 30 32
190 177 175 214 223 198 212 120 117 265 267 358 71 66 11 30 32 306 331 263 230 205 189 180 179 184 183 188 197 205 215 233 261 279 305 332 337 350 358 15 37 43 48 47